This is the latest recevied weather packets stored in our database for station/object KA3RQR. If no packets are shown the sender has not sent any weather packets the latest 10 day(s).
| Time | Temp. | Humidity | Pressure | Rain* | Wind** | Luminosity | Snow |
|---|---|---|---|---|---|---|---|
| 1777745570 | 13.89° C | 50% | 1013.6 hPa | 0 mm | - | 179 W/m² | - |
| 1777745267 | 13.89° C | 43% | 1013.6 hPa | 0 mm | - | 193 W/m² | - |
| 1777744964 | 13.89° C | 47% | 1013.7 hPa | 0 mm | - | 208 W/m² | - |
| 1777744664 | 13.89° C | 46% | 1013.7 hPa | 0 mm | - | 212 W/m² | - |
| 1777744358 | 13.89° C | 45% | 1013.8 hPa | 0 mm | - | 229 W/m² | - |
| 1777744056 | 13.89° C | 46% | 1014 hPa | 0 mm | - | 239 W/m² | - |
| 1777743753 | 13.89° C | 48% | 1014.1 hPa | 0 mm | - | 235 W/m² | - |
| 1777743450 | 13.33° C | 47% | 1014 hPa | 0 mm | - | 176 W/m² | - |
| 1777743147 | 13.89° C | 46% | 1014 hPa | 0 mm | - | 214 W/m² | - |
| 1777742845 | 13.89° C | 45% | 1014 hPa | 0 mm | - | 241 W/m² | - |
| 1777742541 | 13.89° C | 46% | 1013.9 hPa | 0 mm | - | 240 W/m² | - |
| 1777742237 | 13.33° C | 49% | 1013.9 hPa | 0 mm | - | 247 W/m² | - |
| 1777741934 | 13.33° C | 52% | 1014.3 hPa | 0 mm | - | 245 W/m² | - |
| 1777741631 | 12.78° C | 48% | 1014 hPa | 0 mm | - | 247 W/m² | - |
| 1777741328 | 13.33° C | 47% | 1014 hPa | 0 mm | - | 234 W/m² | - |
| 1777741024 | 13.33° C | 48% | 1014.1 hPa | 0 mm | - | 233 W/m² | - |
| 1777740721 | 13.33° C | 46% | 1014.3 hPa | 0 mm | - | 223 W/m² | - |
| 1777740417 | 12.78° C | 53% | 1014.5 hPa | 0 mm | - | 205 W/m² | - |
| 1777740115 | 12.78° C | 51% | 1014.4 hPa | 0 mm | - | 203 W/m² | - |
| 1777739810 | 12.78° C | 53% | 1014.4 hPa | 0 mm | - | 152 W/m² | - |
| 1777739508 | 12.22° C | 56% | 1014.5 hPa | 0 mm | - | 130 W/m² | - |
| 1777739204 | 12.22° C | 55% | 1014.6 hPa | 0 mm | - | 155 W/m² | - |
| 1777738901 | 12.22° C | 54% | 1014.5 hPa | 0 mm | - | 177 W/m² | - |
| 1777738598 | 12.22° C | 56% | 1014.5 hPa | 0 mm | - | 184 W/m² | - |
| 1777738295 | 11.67° C | 56% | 1014.4 hPa | 0 mm | - | 175 W/m² | - |
* Rain latest hour (hover to see other rain measurements)
** Current wind speed in m/s (hover to see current wind gust speed)